Welcome to Northern Hawkes Bay. New Zealand.
PWS Header
      nz Flag



Hit Counter


W3C Valid W3C Valid logo


    Wairoa

Select any of the Stations below to visit their websites.










Historic Data from Weather Underground
Select the location of interest below. Wairoa is the default. Please have patience, this Data is slow to load in.
Northern Hawkes Bay Historical Data
Daily Summary for February 11, 2017 Units:  English    Metric   Both
« Previous Day
Next Day »
Daily Weekly Monthly Yearly Custom
  High: Low: Average:
Temperature: 71.8 °F 52.7 °F 60.8 °F
Dew Point: 57.4 °F 48 °F 52.7 °F
Humidity: 97% 45% 77%
Wind Speed: 13.6mph 0mph 3mph
Wind Gust: 19.7mph - -
Wind- - SW
Pressure: 29.8 in 29.7 in -
Precipitation: 0 in    
Historical Graphs
 
 
Tabular Data for February 11, 2017
Time Temperature Dew Point Pressure Wind Wind Speed Wind Gust Humidity Rainfall Rate (Hourly) solar
00:02 59.9 °F 53.1 °F 29.8 in North 1.6 mph 3.8 mph 78% 0 in 0 W/m2
00:07 59.9 °F 53.1 °F 29.8 in North 1.6 mph 3.8 mph 78% 0 in 0 W/m2
00:12 59.9 °F 53.1 °F 29.8 in North 1.6 mph 3.8 mph 78% 0 in 0 W/m2
00:17 59.9 °F 53.1 °F 29.8 in Calm   3.8 mph 78% 0 in 0 W/m2
00:22 59.7 °F 53.2 °F 29.8 in ENE 0.7 mph 3.1 mph 79% 0 in 0 W/m2
00:27 59.7 °F 53.2 °F 29.8 in Calm   3.1 mph 79% 0 in 0 W/m2
00:32 59.5 °F 53.4 °F 29.8 in NE 1.6 mph 2.2 mph 80% 0 in 0 W/m2
00:37 59.5 °F 53.1 °F 29.8 in North 0.7 mph 2.2 mph 79% 0 in 0 W/m2
00:42 59.5 °F 53.1 °F 29.8 in North 2.2 mph 3.8 mph 79% 0 in 0 W/m2
00:47 59.5 °F 53.1 °F 29.8 in North 1.6 mph 3.8 mph 79% 0 in 0 W/m2
00:52 59.5 °F 52.7 °F 29.8 in North 1.6 mph 3.8 mph 78% 0 in 0 W/m2
00:57 59.5 °F 53.1 °F 29.8 in Calm   3.1 mph 79% 0 in 0 W/m2
01:02 59.5 °F 53.1 °F 29.8 in Calm   2.2 mph 79% 0 in 0 W/m2
01:07 59.2 °F 53.1 °F 29.8 in Calm   1.6 mph 80% 0 in 0 W/m2
01:12 59 °F 53.4 °F 29.8 in Calm   1.6 mph 82% 0 in 0 W/m2
01:17 58.8 °F 54 °F 29.8 in Calm   1.6 mph 84% 0 in 0 W/m2
01:22 58.8 °F 54 °F 29.8 in Calm   0.7 mph 84% 0 in 0 W/m2
01:27 58.6 °F 53.8 °F 29.8 in Calm     84% 0 in 0 W/m2
01:32 58.6 °F 54.1 °F 29.8 in Calm     85% 0 in 0 W/m2
01:37 58.6 °F 54.1 °F 29.8 in Calm     85% 0 in 0 W/m2
01:42 58.6 °F 54.1 °F 29.8 in Calm   0.7 mph 85% 0 in 0 W/m2
01:47 58.5 °F 54 °F 29.8 in Calm   0.7 mph 85% 0 in 0 W/m2
01:52 58.5 °F 54 °F 29.8 in Calm     85% 0 in 0 W/m2
01:57 58.5 °F 54 °F 29.8 in Calm   1.6 mph 85% 0 in 0 W/m2
02:02 58.5 °F 54 °F 29.8 in NNW 1.6 mph 2.2 mph 85% 0 in 0 W/m2
02:07 58.5 °F 54.3 °F 29.8 in NNW 3.1 mph 4.5 mph 86% 0 in 0 W/m2
02:12 58.5 °F 54.7 °F 29.7 in NNW 1.6 mph 4.5 mph 87% 0 in 0 W/m2
02:17 58.3 °F 54.3 °F 29.8 in NNW 2.2 mph 4.5 mph 87% 0 in 0 W/m2
02:22 58.3 °F 54.1 °F 29.7 in NNW 2.2 mph 5.4 mph 86% 0 in 0 W/m2
02:27 58.3 °F 54.1 °F 29.7 in NNW 2.2 mph 5.4 mph 86% 0 in 0 W/m2
02:32 58.3 °F 54.1 °F 29.7 in NNW 2.2 mph 4.5 mph 86% 0 in 0 W/m2
02:37 58.3 °F 54.1 °F 29.7 in Calm   4.5 mph 86% 0 in 0 W/m2
02:42 58.3 °F 54.1 °F 29.7 in NNW 2.2 mph 4.5 mph 86% 0 in 0 W/m2
02:47 58.3 °F 54.1 °F 29.7 in NNW 1.6 mph 3.1 mph 86% 0 in 0 W/m2
02:52 58.3 °F 54.1 °F 29.7 in North 3.1 mph 5.4 mph 86% 0 in 0 W/m2
02:57 58.3 °F 54.1 °F 29.7 in North 2.2 mph 5.4 mph 86% 0 in 0 W/m2
03:02 58.3 °F 54.1 °F 29.7 in North 2.2 mph 5.4 mph 86% 0 in 0 W/m2
03:07 58.3 °F 54.1 °F 29.7 in NNW 1.6 mph 3.8 mph 86% 0 in 0 W/m2
03:12 58.1 °F 54.3 °F 29.7 in Calm   3.1 mph 87% 0 in 0 W/m2
03:17 58.1 °F 54.3 °F 29.7 in Calm   3.1 mph 87% 0 in 0 W/m2
03:22 57.9 °F 54.1 °F 29.7 in Calm   1.6 mph 87% 0 in 0 W/m2
03:27 57.9 °F 54.1 °F 29.7 in NNW 1.6 mph 3.1 mph 87% 0 in 0 W/m2
03:32 57.9 °F 54.1 °F 29.7 in NNW 2.2 mph 3.8 mph 87% 0 in 0 W/m2
03:37 57.9 °F 54.3 °F 29.7 in NNW 1.6 mph 3.8 mph 88% 0 in 0 W/m2
03:42 57.7 °F 54.1 °F 29.7 in NNW 1.6 mph 3.8 mph 88% 0 in 0 W/m2
03:47 57.6 °F 53.8 °F 29.7 in NNW 1.6 mph 4.5 mph 87% 0 in 0 W/m2
03:52 57.2 °F 53.4 °F 29.7 in NNW 0.7 mph 4.5 mph 87% 0 in 0 W/m2
03:57 57 °F 53.4 °F 29.7 in North 1.6 mph 3.8 mph 88% 0 in 0 W/m2
04:02 56.8 °F 53.2 °F 29.7 in North 0.7 mph 4.5 mph 88% 0 in 0 W/m2
04:07 56.7 °F 53.4 °F 29.7 in North 2.2 mph 4.5 mph 89% 0 in 0 W/m2
04:12 56.7 °F 53.4 °F 29.7 in North 1.6 mph 3.8 mph 89% 0 in 0 W/m2
04:17 56.5 °F 53.6 °F 29.7 in NNW 2.2 mph 3.8 mph 90% 0 in 0 W/m2
04:22 56.5 °F 53.6 °F 29.7 in NNW 3.1 mph 4.5 mph 90% 0 in 0 W/m2
04:27 56.3 °F 53.4 °F 29.7 in North 2.2 mph 4.5 mph 90% 0 in 0 W/m2
04:32 56.1 °F 53.2 °F 29.7 in NNW 0.7 mph 4.5 mph 90% 0 in 0 W/m2
04:37 55.9 °F 53.1 °F 29.7 in NNW 1.6 mph 3.8 mph 90% 0 in 0 W/m2
04:42 55.8 °F 53.2 °F 29.7 in North 2.2 mph 3.1 mph 91% 0 in 0 W/m2
04:47 55.4 °F 52.9 °F 29.7 in North 1.6 mph 3.1 mph 91% 0 in 0 W/m2
04:52 55.2 °F 52.9 °F 29.7 in Calm   3.1 mph 92% 0 in 0 W/m2
04:57 55 °F 52.9 °F 29.7 in North 0.7 mph 2.2 mph 92% 0 in 0 W/m2
05:02 54.9 °F 52.9 °F 29.7 in NNE 1.6 mph 2.2 mph 93% 0 in 0 W/m2
05:07 54.7 °F 52.7 °F 29.7 in NNE 1.6 mph 3.1 mph 93% 0 in 0 W/m2
05:12 54.7 °F 52.7 °F 29.7 in North 0.7 mph 3.1 mph 93% 0 in 0 W/m2
05:17 54.9 °F 53.2 °F 29.7 in Calm   3.1 mph 94% 0 in 0 W/m2
05:22 54.9 °F 53.2 °F 29.7 in NNW 0.7 mph 2.2 mph 94% 0 in 0 W/m2
05:27 54.9 °F 53.2 °F 29.7 in North 1.6 mph 3.1 mph 94% 0 in 0 W/m2
05:32 54.9 °F 53.4 °F 29.7 in NNW 1.6 mph 3.1 mph 95% 0 in 0 W/m2
05:37 54.9 °F 53.4 °F 29.7 in NNW 1.6 mph 3.8 mph 95% 0 in 0 W/m2
05:42 54.9 °F 53.4 °F 29.7 in North 0.7 mph 3.8 mph 95% 0 in 0 W/m2
05:47 54.7 °F 53.2 °F 29.7 in NNW 2.2 mph 3.1 mph 95% 0 in 0 W/m2
05:52 54.7 °F 53.2 °F 29.7 in NNW 1.6 mph 3.1 mph 95% 0 in 0 W/m2
05:57 54.7 °F 53.2 °F 29.7 in NNW 1.6 mph 3.1 mph 95% 0 in 0 W/m2
06:02 54.5 °F 53.1 °F 29.7 in NNW 1.6 mph 3.1 mph 95% 0 in 0 W/m2
06:07 54.3 °F 52.9 °F 29.7 in NNW 1.6 mph 3.1 mph 95% 0 in 0 W/m2
06:08 54.3 °F 52.9 °F 29.7 in NNW 1.6 mph 3.1 mph 95% 0 in 0 W/m2
06:12 54.1 °F 52.7 °F 29.7 in NNW 2.2 mph 3.8 mph 95% 0 in 0 W/m2
06:17 54.1 °F 53.1 °F 29.7 in NNW 2.2 mph 3.8 mph 96% 0 in 0 W/m2
06:18 54.1 °F 53.1 °F 29.7 in NNW 1.6 mph 3.8 mph 96% 0 in 0 W/m2
06:23 54 °F 52.9 °F 29.7 in NNW 1.6 mph 3.8 mph 96% 0 in 0 W/m2
06:26 54 °F 52.9 °F 29.7 in NNW 2.2 mph 3.8 mph 96% 0 in 0 W/m2
06:28 54 °F 52.9 °F 29.7 in NNW 1.6 mph 3.8 mph 96% 0 in 0 W/m2
06:31 54 °F 53.1 °F 29.7 in NNW 2.2 mph 3.8 mph 97% 0 in 1 W/m2
06:36 54 °F 53.1 °F 29.7 in NNW 2.2 mph 3.8 mph 97% 0 in 3 W/m2
06:37 54 °F 53.1 °F 29.7 in NNW 1.6 mph 3.8 mph 97% 0 in 4 W/m2
06:42 54 °F 53.1 °F 29.7 in NNW 2.2 mph 3.8 mph 97% 0 in 7 W/m2
06:47 54 °F 53.1 °F 29.7 in NNW 3.1 mph 6 mph 97% 0 in 12 W/m2
06:52 54.1 °F 53.2 °F 29.7 in NNW 1.6 mph 6 mph 97% 0 in 19 W/m2
06:55 54.1 °F 53.2 °F 29.7 in NNW 3.1 mph 4.5 mph 97% 0 in 23 W/m2
07:00 54.5 °F 53.8 °F 29.7 in NNW 2.2 mph 5.4 mph 97% 0 in 40 W/m2
07:05 55 °F 54.1 °F 29.7 in North 2.2 mph 5.4 mph 97% 0 in 68 W/m2
07:10 55.8 °F 54.9 °F 29.7 in NNW 4.5 mph 6 mph 97% 0 in 75 W/m2
07:15 56.5 °F 55 °F 29.7 in NNW 3.1 mph 6 mph 95% 0 in 94 W/m2
07:20 57.2 °F 54.9 °F 29.7 in NNW 3.1 mph 6 mph 92% 0 in 106 W/m2
07:25 57.4 °F 54.1 °F 29.7 in North 2.2 mph 6 mph 89% 0 in 114 W/m2
07:30 58.1 °F 54.3 °F 29.7 in North 3.8 mph 6.9 mph 87% 0 in 121 W/m2
07:35 58.1 °F 53.6 °F 29.7 in NNW 5.4 mph 7.6 mph 85% 0 in 137 W/m2
07:40 58.5 °F 54 °F 29.7 in NNW 3.8 mph 7.6 mph 85% 0 in 155 W/m2
07:45 59 °F 54.1 °F 29.7 in NNW 5.4 mph 6.9 mph 84% 0 in 177 W/m2
07:50 59.4 °F 54.1 °F 29.7 in NNW 4.5 mph 6.9 mph 83% 0 in 202 W/m2
07:55 59.7 °F 54.1 °F 29.7 in NNW 4.5 mph 8.3 mph 82% 0 in 212 W/m2
08:00 59.7 °F 54 °F 29.7 in NNW 5.4 mph 8.3 mph 81% 0 in 217 W/m2
08:05 59.9 °F 54.7 °F 29.8 in NNW 3.8 mph 7.6 mph 83% 0 in 206 W/m2
08:10 60.1 °F 54.9 °F 29.8 in NNW 2.2 mph 7.6 mph 83% 0 in 122 W/m2
08:15 60.3 °F 55 °F 29.8 in NW 3.8 mph 7.6 mph 83% 0 in 213 W/m2
08:20 60.6 °F 55.4 °F 29.8 in NW 2.2 mph 6.9 mph 83% 0 in 67 W/m2
08:26 59.7 °F 54.1 °F 29.8 in NNW 1.6 mph 6 mph 82% 0 in 49 W/m2
08:31 58.8 °F 54 °F 29.8 in North 2.2 mph 5.4 mph 84% 0 in 56 W/m2
08:36 58.1 °F 53.6 °F 29.8 in North 3.8 mph 5.4 mph 85% 0 in 55 W/m2
08:41 57.6 °F 53.4 °F 29.8 in North 2.2 mph 5.4 mph 86% 0 in 71 W/m2
08:46 57.6 °F 53.8 °F 29.8 in NNW 1.6 mph 6 mph 87% 0 in 135 W/m2
08:51 58.1 °F 54.3 °F 29.8 in NNW 1.6 mph 6 mph 87% 0 in 115 W/m2
08:56 58.6 °F 54.5 °F 29.8 in Calm   4.5 mph 86% 0 in 151 W/m2
09:01 59.2 °F 54.7 °F 29.8 in NNW 2.2 mph 5.4 mph 85% 0 in 281 W/m2
09:19 61.7 °F 54.1 °F 29.8 in West 3.1 mph 9.2 mph 76% 0 in 151 W/m2
09:24 61.3 °F 53.8 °F 29.8 in West 3.1 mph 6.9 mph 76% 0 in 140 W/m2
09:30 61.3 °F 54.1 °F 29.8 in WSW 6 mph 9.8 mph 77% 0 in 129 W/m2
09:35 61 °F 54.1 °F 29.8 in WSW 7.6 mph 13.6 mph 78% 0 in 142 W/m2
09:40 61.3 °F 55.6 °F 29.8 in WSW 7.6 mph 15.9 mph 81% 0 in 462 W/m2
09:45 62.4 °F 55.6 °F 29.8 in WSW 7.6 mph 15.9 mph 78% 0 in 151 W/m2
09:50 61.5 °F 54.7 °F 29.8 in WSW 9.2 mph 15.9 mph 78% 0 in 191 W/m2
09:55 61.3 °F 55 °F 29.8 in WSW 8.3 mph 14.5 mph 80% 0 in 158 W/m2
10:00 61.2 °F 54.7 °F 29.8 in SW 13.6 mph 16.8 mph 79% 0 in 191 W/m2
10:05 61.2 °F 55.2 °F 29.8 in SW 12.1 mph 18.3 mph 81% 0 in 142 W/m2
10:10 61.2 °F 55.6 °F 29.8 in SW 9.2 mph 19.7 mph 82% 0 in 179 W/m2
10:15 61.3 °F 55.8 °F 29.8 in SW 9.8 mph 19.7 mph 82% 0 in 271 W/m2
10:20 61.5 °F 55.9 °F 29.8 in SSW 12.1 mph 19.7 mph 82% 0 in 259 W/m2
10:25 61.5 °F 55.9 °F 29.8 in SSW 12.1 mph 19.7 mph 82% 0 in 264 W/m2
10:30 61.9 °F 56.3 °F 29.8 in SSW 8.3 mph 19.7 mph 82% 0 in 483 W/m2
10:36 62.4 °F 55.8 °F 29.8 in SW 9.2 mph 17.4 mph 79% 0 in 369 W/m2
10:41 62.8 °F 56.1 °F 29.8 in SSW 12.1 mph 17.4 mph 79% 0 in 303 W/m2
10:46 63 °F 55.9 °F 29.8 in SSW 9.2 mph 16.8 mph 78% 0 in 277 W/m2
10:51 62.6 °F 56.5 °F 29.8 in SSW 13 mph 16.8 mph 80% 0 in 340 W/m2
10:56 62.6 °F 56.7 °F 29.8 in SSW 9.2 mph 16.8 mph 81% 0 in 349 W/m2
11:01 63.3 °F 57.4 °F 29.8 in SSW 7.6 mph 16.8 mph 81% 0 in 769 W/m2
11:06 64.4 °F 56.7 °F 29.8 in SSW 10.7 mph 17.4 mph 76% 0 in 423 W/m2
11:11 63.3 °F 55.2 °F 29.8 in South 6 mph 17.4 mph 75% 0 in 396 W/m2
11:16 63.3 °F 55.2 °F 29.8 in South 8.3 mph 15.9 mph 75% 0 in 477 W/m2
11:21 63.1 °F 55 °F 29.8 in South 7.6 mph 15.9 mph 75% 0 in 343 W/m2
11:26 63 °F 54.7 °F 29.8 in SSW 10.7 mph 17.4 mph 74% 0 in 324 W/m2
11:31 62.6 °F 54.7 °F 29.8 in SSW 10.7 mph 17.4 mph 75% 0 in 315 W/m2
11:36 62.1 °F 55.6 °F 29.8 in South 12.1 mph 17.4 mph 79% 0 in 311 W/m2
11:41 61.9 °F 55.8 °F 29.8 in South 9.2 mph 17.4 mph 80% 0 in 345 W/m2
11:46 62.2 °F 55.8 °F 29.8 in SSW 9.8 mph 15.9 mph 79% 0 in 374 W/m2
11:51 62.2 °F 54.7 °F 29.8 in South 8.3 mph 15.2 mph 76% 0 in 343 W/m2
11:56 61.9 °F 54 °F 29.8 in South 8.3 mph 14.5 mph 75% 0 in 344 W/m2
12:01 62.2 °F 55 °F 29.8 in South 8.3 mph 14.5 mph 77% 0 in 376 W/m2
12:06 61.7 °F 53.8 °F 29.8 in South 9.8 mph 15.2 mph 75% 0 in 382 W/m2
12:11 61.9 °F 54.7 °F 29.8 in South 8.3 mph 15.2 mph 77% 0 in 411 W/m2
12:16 62.1 °F 54.1 °F 29.8 in South 6.9 mph 13.6 mph 75% 0 in 398 W/m2
12:21 62.2 °F 54.1 °F 29.8 in South 8.3 mph 13.6 mph 75% 0 in 431 W/m2
12:26 62.4 °F 54.9 °F 29.8 in South 3.8 mph 13.6 mph 76% 0 in 294 W/m2
12:31 62.1 °F 54.9 °F 29.8 in SSE 2.2 mph 10.7 mph 77% 0 in 254 W/m2
12:36 61.9 °F 55 °F 29.8 in SSE 0.7 mph 9.2 mph 78% 0 in 242 W/m2
12:41 62.1 °F 54.9 °F 29.8 in SSE 2.2 mph 8.3 mph 77% 0 in 240 W/m2
12:46 62.4 °F 54.9 °F 29.8 in SSE 3.8 mph 6.9 mph 76% 0 in 248 W/m2
12:51 62.2 °F 54.1 °F 29.8 in SSE 4.5 mph 7.6 mph 75% 0 in 247 W/m2
12:56 62.4 °F 54.3 °F 29.8 in South 3.1 mph 7.6 mph 75% 0 in 270 W/m2
13:01 62.8 °F 54 °F 29.8 in SSW 4.5 mph 6.9 mph 73% 0 in 302 W/m2
13:06 63 °F 54.1 °F 29.8 in WSW 3.1 mph 6.9 mph 73% 0 in 367 W/m2
13:11 63.1 °F 54 °F 29.8 in SW 2.2 mph 9.8 mph 72% 0 in 372 W/m2
13:16 63.9 °F 54.3 °F 29.8 in SSW 3.8 mph 9.8 mph 71% 0 in 374 W/m2
13:21 64.6 °F 53.8 °F 29.8 in SSW 3.1 mph 6.9 mph 68% 0 in 391 W/m2
13:26 64.8 °F 53.6 °F 29.8 in South 3.8 mph 6.9 mph 67% 0 in 404 W/m2
13:31 64.9 °F 53.8 °F 29.8 in SSE 3.8 mph 6.9 mph 67% 0 in 376 W/m2
13:36 65.1 °F 53.4 °F 29.8 in South 4.5 mph 6.9 mph 66% 0 in 410 W/m2
13:41 65.3 °F 54.1 °F 29.8 in SSW 6 mph 8.3 mph 67% 0 in 478 W/m2
13:46 65.7 °F 54 °F 29.8 in South 5.4 mph 8.3 mph 66% 0 in 488 W/m2
13:51 65.8 °F 53.8 °F 29.8 in SSW 3.8 mph 7.6 mph 65% 0 in 537 W/m2
13:56 65.5 °F 53.4 °F 29.8 in SSW 3.8 mph 9.2 mph 65% 0 in 463 W/m2
14:01 65.5 °F 53.4 °F 29.8 in SSW 4.5 mph 9.2 mph 65% 0 in 483 W/m2
14:06 66 °F 54 °F 29.8 in SSW 4.5 mph 7.6 mph 65% 0 in 491 W/m2
14:11 66.7 °F 54.1 °F 29.8 in South 3.8 mph 7.6 mph 64% 0 in 434 W/m2
14:16 67.5 °F 54.9 °F 29.8 in SSE 4.5 mph 6 mph 64% 0 in 486 W/m2
14:21 68 °F 54.5 °F 29.8 in SSE 1.6 mph 6 mph 62% 0 in 723 W/m2
14:26 69.6 °F 54.7 °F 29.8 in SSE 5.4 mph 6.9 mph 59% 0 in 813 W/m2
14:31 68.2 °F 54.7 °F 29.8 in South 4.5 mph 10.7 mph 62% 0 in 872 W/m2
14:36 67.8 °F 55.2 °F 29.8 in South 3.8 mph 10.7 mph 64% 0 in 569 W/m2
14:41 68 °F 54.5 °F 29.8 in South 3.8 mph 7.6 mph 62% 0 in 874 W/m2
14:46 68.7 °F 54.3 °F 29.8 in SSE 3.1 mph 7.6 mph 60% 0 in 558 W/m2
14:51 69.6 °F 53.8 °F 29.8 in SE 3.1 mph 6 mph 57% 0 in 483 W/m2
14:56 68.7 °F 53.4 °F 29.7 in SE 3.1 mph 6.9 mph 58% 0 in 413 W/m2
15:12 68.2 °F 52.9 °F 29.8 in SSE 6 mph 11.4 mph 58% 0 in 828 W/m2
15:17 68.7 °F 52.3 °F 29.7 in SSE 3.1 mph 9.2 mph 56% 0 in 778 W/m2
15:37 68.9 °F 53.1 °F 29.7 in South 3.1 mph 10.7 mph 57% 0 in 694 W/m2
15:42 69.4 °F 53.1 °F 29.7 in SSE 2.2 mph 9.2 mph 56% 0 in 675 W/m2
15:47 70.7 °F 52.9 °F 29.7 in SE 1.6 mph 9.2 mph 53% 0 in 121 W/m2
15:52 71.2 °F 52.7 °F 29.7 in SE 2.2 mph 7.6 mph 52% 0 in 526 W/m2
15:57 70.7 °F 52.9 °F 29.7 in SSE 6 mph 10.7 mph 53% 0 in 521 W/m2
16:02 69.4 °F 51.6 °F 29.7 in South 1.6 mph 10.7 mph 53% 0 in 599 W/m2
16:07 69.4 °F 51.6 °F 29.7 in South 6 mph 9.8 mph 53% 0 in 586 W/m2
16:13 69.6 °F 51.8 °F 29.7 in SSE 6 mph 9.2 mph 53% 0 in 368 W/m2
16:18 69.3 °F 52 °F 29.7 in SSE 2.2 mph 10.7 mph 54% 0 in 504 W/m2
16:23 69.4 °F 52.2 °F 29.7 in SSE 5.4 mph 10.7 mph 54% 0 in 261 W/m2
16:28 69.4 °F 52.5 °F 29.7 in SSE 2.2 mph 11.4 mph 55% 0 in 555 W/m2
16:33 71.4 °F 52.9 °F 29.7 in SSE 2.2 mph 11.4 mph 52% 0 in 256 W/m2
16:49 69.8 °F 51.4 °F 29.7 in SSE 5.4 mph 9.2 mph 52% 0 in 504 W/m2
16:54 69.8 °F 50.4 °F 29.7 in SE 0.7 mph 8.3 mph 50% 0 in 489 W/m2
16:59 70.5 °F 51.1 °F 29.7 in SE 5.4 mph 8.3 mph 50% 0 in 476 W/m2
17:04 70.7 °F 50.2 °F 29.7 in SE 3.8 mph 7.6 mph 48% 0 in 463 W/m2
17:09 70.3 °F 49.6 °F 29.7 in SE 3.8 mph 8.3 mph 48% 0 in 448 W/m2
17:14 71.1 °F 50.4 °F 29.7 in SE 3.8 mph 8.3 mph 48% 0 in 433 W/m2
17:19 70.3 °F 49.3 °F 29.7 in SE 4.5 mph 8.3 mph 47% 0 in 419 W/m2
17:24 70 °F 48.9 °F 29.7 in SSE 3.1 mph 8.3 mph 47% 0 in 405 W/m2
17:29 70.3 °F 49.6 °F 29.7 in South 5.4 mph 8.3 mph 48% 0 in 391 W/m2
17:34 70.3 °F 49.3 °F 29.7 in South 3.1 mph 8.3 mph 47% 0 in 377 W/m2
17:39 70 °F 48.9 °F 29.7 in SE 2.2 mph 10.7 mph 47% 0 in 361 W/m2
17:44 70 °F 49.5 °F 29.7 in SE 3.1 mph 10.7 mph 48% 0 in 345 W/m2
17:49 70.3 °F 49.3 °F 29.7 in SE 2.2 mph 8.3 mph 47% 0 in 331 W/m2
17:54 71.2 °F 49.5 °F 29.7 in SE 3.8 mph 7.6 mph 46% 0 in 317 W/m2
17:59 71.4 °F 49.6 °F 29.7 in SSE 3.1 mph 6.9 mph 46% 0 in 303 W/m2
18:04 71.8 °F 49.3 °F 29.7 in SE 3.1 mph 6.9 mph 45% 0 in 289 W/m2
18:09 71.2 °F 49.5 °F 29.7 in SE 2.2 mph 6 mph 46% 0 in 272 W/m2
18:14 71.1 °F 48.7 °F 29.7 in SE 3.1 mph 6.9 mph 45% 0 in 259 W/m2
18:19 69.3 °F 49.3 °F 29.7 in SSE 1.6 mph 9.8 mph 49% 0 in 244 W/m2
18:25 70.3 °F 48 °F 29.7 in SSE 3.8 mph 9.8 mph 45% 0 in 227 W/m2
18:30 69.8 °F 49.3 °F 29.7 in SE 3.8 mph 8.3 mph 48% 0 in 214 W/m2
18:35 69.8 °F 48.7 °F 29.7 in ESE 3.8 mph 7.6 mph 47% 0 in 200 W/m2
18:40 69.1 °F 49.1 °F 29.7 in SE 1.6 mph 6.9 mph 49% 0 in 48 W/m2
18:45 67.1 °F 49.5 °F 29.7 in SE 3.1 mph 6.9 mph 53% 0 in 47 W/m2
18:50 65.5 °F 49.5 °F 29.7 in ESE 3.1 mph 6 mph 56% 0 in 58 W/m2
18:55 65.8 °F 49.6 °F 29.7 in SE 3.8 mph 6 mph 56% 0 in 107 W/m2
19:00 66 °F 49.5 °F 29.7 in SSE 2.2 mph 7.6 mph 55% 0 in 45 W/m2
19:05 65.1 °F 49.1 °F 29.7 in SSE 1.6 mph 7.6 mph 56% 0 in 45 W/m2
19:10 65.3 °F 49.6 °F 29.7 in SE 2.2 mph 5.4 mph 57% 0 in 39 W/m2
19:14 64.6 °F 48.9 °F 29.7 in ESE 4.5 mph 6 mph 57% 0 in 38 W/m2
19:19 63.5 °F 48.6 °F 29.7 in SE 3.8 mph 6 mph 58% 0 in 37 W/m2
19:21 63.5 °F 48.6 °F 29.7 in ESE 2.2 mph 5.4 mph 58% 0 in 39 W/m2
19:26 63.5 °F 48.6 °F 29.7 in SE 3.8 mph 5.4 mph 58% 0 in 43 W/m2
19:31 64.8 °F 49.3 °F 29.7 in SSE 1.6 mph 5.4 mph 57% 0 in 48 W/m2
19:36 64.6 °F 48.9 °F 29.7 in SSE 3.1 mph 5.4 mph 57% 0 in 29 W/m2
19:41 63.5 °F 48.9 °F 29.7 in SE 0.7 mph 4.5 mph 59% 0 in 26 W/m2
19:46 63.1 °F 49.5 °F 29.7 in Calm   4.5 mph 61% 0 in 23 W/m2
19:51 62.6 °F 48.9 °F 29.7 in East 3.1 mph 4.5 mph 61% 0 in 17 W/m2
19:57 62.2 °F 49.5 °F 29.7 in East 0.7 mph 4.5 mph 63% 0 in 16 W/m2
20:02 62.1 °F 49.3 °F 29.7 in East 1.6 mph 4.5 mph 63% 0 in 12 W/m2
20:07 61.7 °F 49.5 °F 29.7 in Calm   3.8 mph 64% 0 in 7 W/m2
20:12 61.3 °F 49.5 °F 29.7 in Calm   2.2 mph 65% 0 in 4 W/m2
20:17 60.8 °F 48.9 °F 29.7 in Calm   2.2 mph 65% 0 in 1 W/m2
20:22 60.6 °F 49.3 °F 29.7 in Calm   2.2 mph 66% 0 in 0 W/m2
20:27 60.1 °F 49.1 °F 29.7 in Calm   2.2 mph 67% 0 in 0 W/m2
20:32 59.7 °F 49.3 °F 29.7 in Calm   0.7 mph 68% 0 in 0 W/m2
20:37 59.5 °F 49.8 °F 29.7 in Calm   0.7 mph 70% 0 in 0 W/m2
20:42 59.2 °F 49.8 °F 29.7 in Calm   0.7 mph 71% 0 in 0 W/m2
20:47 59 °F 49.6 °F 29.7 in Calm   0.7 mph 71% 0 in 0 W/m2
20:52 58.6 °F 50 °F 29.7 in Calm     73% 0 in 0 W/m2
20:57 58.5 °F 49.8 °F 29.7 in Calm     73% 0 in 0 W/m2
21:02 58.1 °F 49.8 °F 29.7 in Calm     74% 0 in 0 W/m2
21:07 57.9 °F 50.2 °F 29.7 in Calm   1.6 mph 75% 0 in 0 W/m2
21:12 57.7 °F 50.2 °F 29.7 in Calm   1.6 mph 76% 0 in 0 W/m2
21:17 57.7 °F 50.2 °F 29.7 in Calm   2.2 mph 76% 0 in 0 W/m2
21:22 57.6 °F 50.4 °F 29.7 in Calm   2.2 mph 77% 0 in 0 W/m2
21:27 57.2 °F 50.2 °F 29.7 in Calm   1.6 mph 77% 0 in 0 W/m2
21:32 56.8 °F 50.2 °F 29.7 in NW 0.7 mph 1.6 mph 78% 0 in 0 W/m2
21:37 56.5 °F 50.2 °F 29.7 in NW 1.6 mph 2.2 mph 79% 0 in 0 W/m2
21:42 56.1 °F 50 °F 29.7 in NW 2.2 mph 3.1 mph 80% 0 in 0 W/m2
21:47 55.9 °F 50.2 °F 29.7 in NW 0.7 mph 3.1 mph 81% 0 in 0 W/m2
21:52 55.8 °F 50.7 °F 29.7 in NNW 2.2 mph 3.1 mph 83% 0 in 0 W/m2
21:57 55.6 °F 51.3 °F 29.7 in North 1.6 mph 3.8 mph 85% 0 in 0 W/m2
22:02 55.4 °F 51.3 °F 29.7 in North 1.6 mph 3.8 mph 86% 0 in 0 W/m2
22:07 55.2 °F 51.1 °F 29.7 in Calm   3.1 mph 86% 0 in 0 W/m2
22:12 55.2 °F 51.4 °F 29.7 in Calm   3.1 mph 87% 0 in 0 W/m2
22:18 55 °F 51.3 °F 29.7 in Calm   2.2 mph 87% 0 in 0 W/m2
22:23 54.9 °F 51.1 °F 29.7 in NW 1.6 mph 2.2 mph 87% 0 in 0 W/m2
22:28 54.7 °F 51.3 °F 29.7 in Calm   3.1 mph 88% 0 in 0 W/m2
22:33 54.5 °F 51.1 °F 29.7 in NNW 0.7 mph 3.1 mph 88% 0 in 0 W/m2
22:38 54.3 °F 50.7 °F 29.7 in Calm   2.2 mph 88% 0 in 0 W/m2
22:43 54.1 °F 50.7 °F 29.7 in Calm   2.2 mph 88% 0 in 0 W/m2
22:48 54.1 °F 50.7 °F 29.7 in North 2.2 mph 3.1 mph 88% 0 in 0 W/m2
22:53 54.1 °F 51.1 °F 29.7 in Calm   3.1 mph 89% 0 in 0 W/m2
22:59 54 °F 51.1 °F 29.7 in Calm   3.1 mph 90% 0 in 0 W/m2
23:04 54 °F 51.1 °F 29.7 in NNW 1.6 mph 3.1 mph 90% 0 in 0 W/m2
23:09 53.8 °F 50.9 °F 29.7 in Calm   3.1 mph 90% 0 in 0 W/m2
23:15 53.6 °F 51.1 °F 29.7 in NNW 3.1 mph 3.8 mph 91% 0 in 0 W/m2
23:20 53.4 °F 51.3 °F 29.7 in NNW 1.6 mph 3.8 mph 92% 0 in 0 W/m2
23:25 53.2 °F 51.1 °F 29.7 in NNW 1.6 mph 3.8 mph 92% 0 in 0 W/m2
23:30 53.2 °F 51.1 °F 29.7 in North 1.6 mph 3.1 mph 92% 0 in 0 W/m2
23:35 53.2 °F 51.1 °F 29.7 in NNW 0.7 mph 3.1 mph 92% 0 in 0 W/m2
23:40 53.2 °F 51.1 °F 29.7 in NW 1.6 mph 3.1 mph 92% 0 in 0 W/m2
23:45 53.1 °F 50.7 °F 29.7 in Calm   3.1 mph 92% 0 in 0 W/m2
23:50 52.9 °F 50.5 °F 29.7 in NW 0.7 mph 3.1 mph 92% 0 in 0 W/m2
23:55 52.7 °F 50.4 °F 29.7 in NW 1.6 mph 3.1 mph 92% 0 in 0 W/m2
Northern Hawkes Bay. New Zealand Historic Data
Compliments of Weather Underground - 2 mb